Flag for Hungary Weather past 2 weeks in Miskolc, Hungary

Now
67 °F

Passing clouds.


Feels Like: 67 °F
Forecast: 62 / 87 °F
Wind: 1 mph from West

Location: Miskolc

Current Time: Aug 2, 2015 at 10:46:31 PM

Latest Report: Aug 2, 2015 at 10:00 PM


Visibility: 16 mi

Pressure: 30.09 "Hg

Humidity: 84%

Dew point: 62 °F

Location of MiskolcLocation

Historic Weather in Miskolc — Graph

°F

Miskolc temperature yesterday

Maximum temperature yesterday: 82 °F (at 5:00 PM)
Minimum temperature yesterday: 53 °F (at 6:00 AM)
Average temperature yesterday: 68 °F

Past Weeks' High & Low Weather Summary

 TemperatureHumidityPressure
High98 °F (Jul 23, 3:00 PM)87% (Jul 30, 10:00 AM)30.12 "Hg (Jul 30, 10:00 AM)
Low53 °F (Aug 1, 6:00 AM)25% (Aug 1, 2:00 PM)29.66 "Hg (Jul 25, 6:00 PM)
Average73 °F59%29.90 "Hg
* Reported Jul 18 9:00 PM — Aug 2 9:00 PM, Miskolc, Weather by CustomWeather, © 2015

Note: Actual official high and low records may vary slightly from our data, if they occured in-between our weather recording intervals... More about our weather records

Advertising

Miskolc weather history for previous 24 hours

 ConditionsComfort  
Time TempWeatherWind HumidityBarometerVisibility
9:00 PM
Sun, Aug 2
68 °FPassing clouds.1 mph83%30.08 "Hg16 mi
8:00 PM70 °FOvercast.1 mph83%30.06 "Hg16 mi
7:00 PM74 °FSprinkles. Overcast.1 mph70%30.08 "Hg12 mi
6:00 PM80 °FSprinkles. Overcast.1 mph52%30.08 "Hg19 mi
5:00 PM81 °FSprinkles. Overcast.1 mph43%30.08 "Hg19 mi
4:00 PM83 °FOvercast.2 mph40%30.08 "Hg22 mi
3:00 PM82 °FOvercast.1 mph39%30.09 "Hg22 mi
2:00 PM81 °FOvercast.1 mph41%30.10 "Hg22 mi
1:00 PM78 °FOvercast.2 mph42%30.11 "Hg22 mi
12:00 PM76 °FOvercast.1 mph45%30.11 "Hg22 mi
11:00 AM72 °FOvercast.1 mph48%30.11 "Hg22 mi
10:00 AM70 °FOvercast.1 mph52%30.11 "Hg19 mi
9:00 AM69 °FOvercast.1 mph52%30.10 "Hg22 mi
8:00 AM64 °FPartly sunny.No wind61%30.10 "Hg22 mi
7:00 AM60 °FScattered clouds.No wind68%30.10 "Hg22 mi
6:00 AM57 °FCool.No wind71%30.09 "HgN/A
4:00 AM58 °FPassing clouds.No wind68%30.08 "Hg19 mi
3:00 AM59 °FPassing clouds.1 mph65%30.08 "Hg19 mi
2:00 AM60 °FPassing clouds.1 mph63%30.08 "Hg19 mi
1:00 AM62 °FPassing clouds.No wind61%30.07 "Hg19 mi
12:00 AM63 °FPassing clouds.1 mph59%30.07 "Hg19 mi
10:00 PM
Sat, Aug 1
67 °FPassing clouds.1 mph54%30.04 "Hg25 mi
Weather by CustomWeather, © 2015

See weather overviewHow to use our weather pages